Hourly Data Report for October 06, 2017

All times are specified in Local Standard Time (LST). Add 1 hour to adjust for Daylight Saving Time where and when it is observed.

SARNIA
ONTARIO

42°59'58.000" N
82°18'32.000" W
181.40 m
6127510
71704
YZR

Download Data

Hourly Data (October 2017)
Hourly Data Report for October 6, 2017
Temp Definition
°C
Dew Point Temp Definition
°C
Rel Hum Definition
%
Wind Dir Definition
10's deg

Wind Spd Definition
km/h
Visibility Definition
km
Stn Press Definition
kPa
Hmdx Definition


Wind Chill Definition


Weather Definition


TIME
00:00 Legend Double Dagger 16.2 10.6 69 29 5 16.1 99.76     LegendNANA
01:00 Legend Double Dagger 15.9 11.0 73 18 5 16.1 99.72     LegendNANA
02:00 Legend Double Dagger 14.8 12.0 83 23 5 16.1 99.65     Rain
03:00 Legend Double Dagger 15.3 11.8 79 28 8 16.1 99.74     Rain
04:00 Legend Double Dagger 14.2 12.8 91 20 8 16.1 99.72     Rain
05:00 Legend Double Dagger 13.7 12.9 95 24 4 16.1 99.70     LegendNANA
06:00 Legend Double Dagger 14.0 13.0 94   0 16.1 99.74     LegendNANA
07:00 Legend Double Dagger 14.4 13.7 96 25 8 11.3 99.75     Rain
08:00 Legend Double Dagger 14.0 12.3 90 29 5 14.5 99.77     Rain
09:00 Legend Double Dagger 14.2 12.5 89   0 16.1 99.73     Rain
10:00 Legend Double Dagger 15.0 11.9 81 LegendMM 4 16.1 99.73     LegendNANA
11:00 Legend Double Dagger 16.1 13.8 86 16 5 16.1 99.71     LegendNANA
12:00 Legend Double Dagger 16.6 13.9 84   0 16.1 99.69     LegendNANA
13:00 Legend Double Dagger 16.0 14.1 88 3 11 16.1 99.61     LegendNANA
14:00 Legend Double Dagger 16.8 14.1 84 LegendMM 4 16.1 99.53     LegendNANA
15:00 Legend Double Dagger 16.7 14.3 86 4 8 16.1 99.50     LegendNANA
16:00 Legend Double Dagger 16.5 14.4 87 4 4 16.1 99.47     LegendNANA
17:00 Legend Double Dagger 16.2 14.8 91 7 9 16.1 99.41     LegendNANA
18:00 Legend Double Dagger 15.9 15.2 96 9 8 12.9 99.42     LegendNANA
19:00 Legend Double Dagger 15.8 15.5 98 4 4 4.8 99.41     Fog
20:00 Legend Double Dagger 16.0 15.9 99 12 5 2.8 99.38     Fog
21:00 Legend Double Dagger 16.4 16.2 99 13 9 1.6 99.33     Fog
22:00 Legend Double Dagger 16.7 16.5 99 15 8 2.8 99.31     Fog
23:00 Legend Double Dagger 17.2 17.0 99 18 11 3.6 99.27     Fog

Notes on Data Quality.

Legend

  • E = Estimated
  • M = Missing
  • NA = Not Available
  • ‡ = Partner data that is not subject to review by the National Climate Archives
Date modified: